www.pogodaiklimat.ru

Погода и климат >> Архив погоды >> Украина >> Новая Ушица


ПОГОДА в Новой Ушице

  • Прогноз погоды в Новой Ушице
  • Монитор погоды в Новой Ушице
  • Климат города

АРХИВ ПОГОДЫ в Новой Ушице

Время (UTC), дата Ветер
(напр.,м/с)
 
Видим.   Явления Облачность Т
(С)
Тd
(С)
f
(%)
Тe
(С)
Тes
(С)
Комфортность P
(гПа)
Po
(гПа)
Тmin
(С)
Tmax
(С)
R
(мм)
R24
(мм)
S
(см)
00 17.06 штиль 0 н/о 9/5 600 м
[Cb calv Ac trans]
+16.9 +14.7 87 +17 +17 1013.1 1013.0
03 17.06 СВ 1 15 км слабый ливневой дождь 10 баллов +16.5 +14.9 90 0.0
06 17.06 СВ 1 8000 м слабый ливневой дождь {гроза} 10/8 300 м
[Cb cap Ac und]
+16.4 +15.7 96 +17 +18 1012.3 1012.0 +15.8 10
09 17.06 С 2 35 км 9 баллов +21.8 +18.0 79 675.2
12 17.06 СВ 2 >70 км гроза без осадков {ливн. осадки} 9/8 600 м
[Cb cap Ac und]
+24.1 +18.6 71 +29 +31 душно 1011.2 1011.0 0.3
15 17.06 СВ 2 н/о гроза без осадков 9 баллов +18.6 +16.6 88 0.0
18 17.06 В 1 5000 м гроза, ливневой дождь 10/8 600 м
[Cb cap Ac As]
+18.2 +17.2 94 +20 +20 1012.6 1013.0 +24.4 22
21 17.06 штиль 0 н/о 9 баллов +17.4 +16.8 96 675.4
00 18.06 штиль 0 н/о {гроза, ливн. осадки} 4/0
[Ci fib]
+16.1 +15.6 97 +16 +16 1013.5 1014.0 5.0
03 18.06 штиль 0 40 км 7 баллов +15.5 +15.0 97 0.0
06 18.06 штиль 0 45 км 9/3 600 м
[Cb cap Ac cuf Ci fib]
+19.2 +17.9 92 +21 +25 комфорт 1013.8 1014.0 +15.1 5
09 18.06 штиль 0 н/о 9 баллов +20.8 +16.8 78 676.2
12 18.06 С 1 >70 км {ливн. осадки} 9/4 600 м
[Cb cap Ac trans Ci fib]
+25.4 +15.2 53 +28 +35 жарко 1013.7 1014.0 0.0
15 18.06 С 1 н/о слабый ливневой дождь, в посл. час гроза 7 баллов +23.4 +19.1 77 0.0
18 18.06 штиль 0 >70 км {гроза, ливн. осадки} 8/3 600 м
[Cb cap Ac trans Ci fib]
+22.4 +18.6 79 +28 +28 душно 1014.6 1015.0 +27.0 1
21 18.06 штиль 0 н/о ясно +18.7 +16.0 84 +20 +20 1016.5 1017.0
00 19.06 штиль 0 н/о ясно +17.1 +15.9 93 +17 +17 1016.9 1017.0
03 19.06 штиль 0 9000 м дымка 2 балла +16.6 +16.0 96 0.0
06 19.06 штиль 0 24 км ясно +21.9 +17.2 75 +26 +36 душно 1017.5 1018.0 +16.3
09 19.06 штиль 0 30 км 3/3 1000 м
[Cu hum]
+26.2 +16.2 54 +30 +46 душно 1017.4 1017.0
12 19.06 штиль 0 35 км 8/8 600 м
[Cu med, cong]
+27.6 +16.8 52 +31 +36 душно 1016.8 1017.0
15 19.06 СЗ 1 30 км 6/4 600 м
[Cb calv Ac lent]
+27.8 +19.6 61 +34 +36 очень
душно
1016.2 1016.0
18 19.06 С 1 35 км 4/0
[Ci fib]
+25.0 +19.8 73 +31 +31 очень
душно
1016.9 1017.0 +28.1
21 19.06 штиль 0 н/о ясно +21.3 +18.3 83 +26 +26 душно 1018.3 1018.0
00 20.06 штиль 0 н/о ясно +20.2 +17.3 83 +23 +23 комфорт 1019.2 1019.0
03 20.06 штиль 0 35 км 7 баллов +19.4 +16.8 85 0.0
06 20.06 штиль 0 50 км 8/0
[Ac trans Ci fib]
+21.9 +17.0 74 +26 +33 душно 1020.5 1021.0 +19.3
09 20.06 С 1 >70 км 8/0
[Ac trans Ci fib]
+25.0 +15.9 57 +28 +43 жарко 1020.7 1021.0
12 20.06 С 1 >70 км 8/3 1000 м
[Cu hum Ac trans Ci fib]
+26.2 +13.2 45 +28 +36 жарко 1019.9 1020.0
15 20.06 С 1 >70 км 6/3 1000 м
[Cu hum Ci fib]
+26.3 +13.1 44 +28 +32 жарко 1018.8 1019.0
18 20.06 штиль 0 50 км 3/0
[Ci fib]
+23.5 +15.8 62 +27 +27 душно 1018.7 1019.0 +26.6
21 20.06 штиль 0 н/о ясно +19.7 +15.5 77 +22 +22 комфорт -169.2 1020.0
00 21.06 штиль 0 н/о ясно +17.0 +14.9 87 +17 +17 1020.0 1020.0
03 21.06 штиль 0 18 км 4 балла +16.6 +15.5 93 0.0
06 21.06 штиль 0 55 км 9/5 600 м
[Sc Ac und]
+21.9 +16.7 72 +26 +28 душно 1018.4 1018.0 +16.3
09 21.06 штиль 0 >70 км 9/1 600 м
[Cu med, cong Ci fib]
+24.9 +15.6 56 +28 +45 жарко 1016.5 1017.0
12 21.06 штиль 0 >70 км 9/8 600 м
[Cu med, cong Ci fib]
+26.4 +16.3 54 +30 +34 душно 1014.3 1014.0
15 21.06 штиль 0 >70 км 8/4 600 м
[Cu med, cong Ci fib]
+26.9 +17.1 55 +31 +34 душно 1012.0 1012.0
18 21.06 штиль 0 >70 км 6/0
[Ac trans Ci fib]
+25.3 +17.9 64 +30 +30 душно 1011.5 1012.0 +27.0
21 21.06 штиль 0 н/о 6/0
[Ci fib]
+22.1 +17.8 77 +27 +27 душно -168.6 1010.0
00 22.06 штиль 0 н/о 3/0
[Ci fib]
+20.2 +17.1 82 +23 +23 комфорт 1009.8 1010.0
03 22.06 штиль 0 16 км 7 баллов +19.5 +17.3 87 0.0
06 22.06 штиль 0 29 км 9/3 600 м
[Cb cap Ac trans Ci fib]
+22.9 +18.5 76 +29 +33 очень
душно
1009.1 1009.0 +19.3
09 22.06 С 2 50 км 10/6 600 м
[Cb cap Ac As]
+19.0 +14.9 77 +21 +23 комфорт 0.9 1012.0
12 22.06 С 1 45 км в посл. час ливневой дождь 9/5 300 м
[Cb cap Ac und]
+16.6 +14.4 87 +17 +21 1011.8 1012.0 0.4
15 22.06 С 1 40 км гроза без осадков 9 баллов +16.9 +11.4 70 0.0
18 22.06 С 2 >70 км {гроза} 10/8 300 м
[Cb cap Ac und]
+14.8 +9.4 70 +15 +15 1013.1 1013.0 +22.9 0.4
21 22.06 С 2 н/о 10 баллов +14.0 +10.2 78 1350.4
00 23.06 С 2 н/о {ливн. осадки} 10/8 300 м
[Cb cap Ac und]
+12.9 +11.4 91 +12 +12 1011.5 1012.0 0.5
03 23.06 СЗ 2 9000 м слабый ливневой дождь 10 баллов +11.1 +10.5 96 0.0
06 23.06 ЮВ 2 5000 м слабый дождь {ливн. осадки} 10/10 270 м
[Frnb Ns]
+10.0 +9.2 95 +8 +8 1013.1 1013.0 +9.9 4
09 23.06 Ю 2 8000 м слабый дождь 10 баллов +10.4 +9.2 92 675.7
12 23.06 З 3 19 км {дождь} 10/8 300 м
[Cb cap Ac As]
+11.3 +9.9 91 +9 +10 1014.0 1014.0 5.0
15 23.06 З 4 40 км 9 баллов +11.0 +9.4 90 0.0
18 23.06 СЗ 3 н/о 6 баллов +12.4 +9.0 80 0.0 +12.5 6
21 23.06 З 2 н/о ясно +8.8 +8.0 95 +7 +7 1015.7 1016.0

 

Местоположение метеостанции Новая Ушица (Хмельницкая область, Украина): широта 48.85 долгота 27.27 высота над уровнем моря 290 м.

В архиве по умолчанию представлена погода в Новой Ушице за последнюю неделю. Архивные данные за месяц целиком и за предыдущие месяцы, начиная с января 2011 года, Вы можете получить, выбрав интересующий диапазон дат из раскрывающегося списка и нажав кнопку "Ввод!".


*Определитесь, кто Вы:
робот инопланетянин человек

Внимание! Время в таблицах - всемирное. Для получения местного времени необходимо прибавить поправку, которая в Новой Ушице равна 2 ч.

Смотрите также архив погоды в соседних городах и на ближайших метеорологических станциях:

Погода в Новоднестровске (Черновицкая область, Украина) (34 км)
Погода в Каменец-Подольском (Хмельницкая область, Украина) (49 км)
Погода в Бричанах (Молдова) (57 км)
Погода в Могилев-Подольском (Винницкая область, Украина) (58 км)
Погода в Хмельнике (Винницкая область, Украина) (58 км)
Погода в Жмеринке (Винницкая область, Украина) (65 км)
Погода в Хмельницком (Хмельницкая область, Украина) (68 км)
Погода в Darabani (Румыния) (88 км)
Погода в Сороках (Молдова) (105 км)
Погода в Виннице (Винницкая область, Украина) (106 км)

Пояснения к столбцам:

Ветер - указаны скорость ветра в м/с - средняя за 10 мин, порывы в срок и между сроками (в фигурных скобках) и направление, откуда дует ветер: С - северный, СВ - северо-восточный, В - восточный, ЮВ - юго-восточный, Ю - южный, ЮЗ - юго-западный, З - западный, СЗ - северо-западный.
Видимость - горизонтальная дальность видимости в метрах или километрах. При видимости от 1 до 10 км при отсутствии осадков обычно наблюдается дымка, при ухудшении видимости до 1 км и менее - туман. В сухую погоду видимость может ухудшаться дымом, пылью или мглою.
Явления - указаны атмосферные явления, наблюдавшиеся в срок или в последний час перед сроком; фигурными скобками обозначены явления, наблюдавшиеся между сроками (за 1-3 часа до срока); квадратными скобками обозначены град или гололедные отложения с указанием их диаметра в мм.
Облачность - указаны через наклонную черту общая и нижняя облачность в баллах и высота нижней границы облаков в метрах; квадратными скобками обозначены формы облаков: Ci - перистые, Cs - перисто-слоистые, Cc - перисто-кучевые, Ac - высококучевые, As - высокослоистые, Sc - слоисто-кучевые, Ns - слоисто-дождевые, Cu - кучевые, Cb - кучево-дождевые. Подробнее классификацию облаков см. в Атласе облаков (PDF).
T - Температура воздуха - температура, измеренная на высоте 2 м над землей.
Td - Температура точки росы - температура, при понижении до которой содержащийся в воздухе водяной пар достигнет насыщения.
f - Относительная влажность воздуха - влажноcть воздуха, измеренная на высоте 2 м над землей.
Te - Эффективная температура - температура, которую ощущает одетый по сезону человек в тени. Характеристика душности погоды. При расчете учитывается влияние влажности воздуха и скорости ветра на теплоощущения человека.
Tes - Эффективная температура на солнце - температура, которую ощущает человек, с поправкой на солнечный нагрев. Характеристика знойности погоды. Зависит от высоты солнца над горизонтом, облачности и скорости ветра. Ночью, в пасмурную погоду, а также при ветре 12 м/с и более поправка равна нулю.
P - Атмосферное давление - приведенное к уровню моря атмосферное давление.
Po - Атмосферное давление - измеренное на уровне метеостанции атмосферное давление.
Tmin - Минимальная температура - минимум температуры воздуха на высоте 2 м над землей.
Tmax - Максимальная температура - максимум температуры воздуха на высоте 2 м над землей.
R - Количество осадков - Количество выпавших осадков за период времени, мм. При наведении курсора мыши на число - период времени, за который выпало указанное количество осадков.
R24 - Количество осадков - Количество выпавших осадков за 24 часа, мм.
S - Снежный покров - Высота снежного покрова, см. При наведении курсора мыши на число - состояние снежного покрова и степень покрытия местности в баллах.